Jefferson, NC

9:56 AM EST on December 15, 2017 (GMT -0500)
Ashe County

Weather History for KGEV - March, 2013

Change the Weather History Date:

Sunday, March 17, 2013

  Actual Average Record
Temperature  
Mean Temperature 46 °F -  
Max Temperature 56 °F 51 °F 72 °F (1982)
Min Temperature 34 °F 28 °F 15 °F (1969)
Degree Days  
Heating Degree Days 20    
Moisture  
Dew Point 43 °F    
Average Humidity 80    
Maximum Humidity 96    
Minimum Humidity 65    
Precipitation  
Precipitation 0.00 in - - ()
Sea Level Pressure  
Sea Level Pressure 29.97 in    
Wind  
Wind Speed 5 mph (ESE)    
Max Wind Speed 12 mph    
Max Gust Speed 22 mph    
Visibility 8 miles    
Events Rain    
Averages and records for this station are not official NWS values.
T = Trace of Precipitation, MM = Missing Value Source: NWS Daily Summary

Daily Weather History Graph

Daily Weather History Graph

Search for Another Location

Airport or City:

Trip Planner

Search our weather history database for the weather conditions in past years. The results will help you decide how hot, cold, wet, or windy it might be!

Date:

Astronomy

Mar. 17, 2013 Rise Set
Actual Time 7:33 AM EDT 7:35 PM EDT
Civil Twilight 7:07 AM EDT 8:00 PM EDT
Nautical Twilight 6:37 AM EDT 8:30 PM EDT
Astronomical Twilight 6:07 AM EDT 9:01 PM EDT
Moon 10:54 AM EDT (3/17) 12:32 AM EDT (3/17)
Length of Visible Light 12h 53m
Length of Day
12h 01m
Waxing Crescent, 31% of the Moon is Illuminated
Mar 17
Waxing Crescent
Mar 19
First Quarter
Mar 27
Full
Apr 3
Last Quarter
Apr 10
New

Hourly Weather History & Observations

Time (EDT) Temp. Windchill Dew Point Humidity Pressure Visibility Wind Dir Wind Speed Gust Speed Precip Events Conditions
12:15 AM 56.1 °F - 44.6 °F 65% 29.91 in 10.0 mi WNW 11.5 mph 21.9 mph N/A   Clear
12:35 AM 55.8 °F - 44.2 °F 65% 29.91 in 10.0 mi WNW 8.1 mph - N/A   Clear
1:15 AM 55.2 °F - 44.2 °F 67% 29.92 in 10.0 mi WSW 3.5 mph - N/A   Scattered Clouds
1:35 AM 55.4 °F - 43.9 °F 65% 29.91 in 10.0 mi West 4.6 mph - N/A   Mostly Cloudy
2:15 AM 55.6 °F - 43.9 °F 65% 29.91 in 10.0 mi West 6.9 mph - N/A   Overcast
2:35 AM 55.4 °F - 44.1 °F 66% 29.92 in 10.0 mi WNW 8.1 mph - N/A   Overcast
2:55 AM 55.0 °F - 44.1 °F 67% 29.91 in 10.0 mi WNW 5.8 mph - N/A   Mostly Cloudy
3:15 AM 55.4 °F - 44.1 °F 66% 29.92 in 10.0 mi West 8.1 mph - N/A   Overcast
3:35 AM 55.0 °F - 44.1 °F 67% 29.92 in 10.0 mi West 9.2 mph - N/A   Overcast
3:55 AM 55.4 °F - 44.1 °F 66% 29.92 in 10.0 mi West 4.6 mph - N/A   Overcast
4:15 AM 55.4 °F - 44.1 °F 66% 29.92 in 10.0 mi WSW 3.5 mph - N/A   Overcast
4:35 AM 55.0 °F - 44.1 °F 67% 29.92 in 10.0 mi West 4.6 mph - N/A   Overcast
4:55 AM 54.5 °F - 44.2 °F 68% 29.92 in 10.0 mi WNW 4.6 mph - N/A   Overcast
5:15 AM 54.5 °F - 44.6 °F 69% 29.91 in 10.0 mi Calm Calm - N/A   Overcast
5:35 AM 53.8 °F - 44.4 °F 71% 29.92 in 10.0 mi Calm Calm - N/A   Overcast
5:55 AM 54.1 °F - 44.1 °F 69% 29.92 in 10.0 mi Calm Calm - N/A   Overcast
6:15 AM 53.6 °F - 44.2 °F 71% 29.93 in 10.0 mi Calm Calm - N/A   Overcast
6:35 AM 53.6 °F - 44.6 °F 72% 29.94 in 10.0 mi NW 3.5 mph - N/A   Overcast
6:55 AM 52.7 °F - 44.8 °F 74% 29.94 in 10.0 mi NNW 4.6 mph - N/A   Overcast
7:15 AM 52.0 °F - 45.0 °F 77% 29.95 in 10.0 mi NW 4.6 mph - N/A   Overcast
7:35 AM 51.8 °F - 45.0 °F 77% 29.95 in 10.0 mi Calm Calm - N/A   Overcast
7:55 AM 50.9 °F - 45.0 °F 80% 29.96 in 10.0 mi Calm Calm - N/A   Overcast
8:15 AM 52.2 °F - 44.8 °F 76% 29.97 in 10.0 mi NNW 5.8 mph - N/A   Overcast
8:35 AM 50.7 °F - 45.3 °F 82% 29.97 in 10.0 mi Calm Calm - N/A   Overcast
8:55 AM 51.1 °F - 45.5 °F 81% 29.98 in 10.0 mi Calm Calm - N/A   Overcast
9:15 AM 50.9 °F - 45.5 °F 82% 29.98 in 10.0 mi NNE 4.6 mph - N/A   Overcast
9:35 AM 50.9 °F - 45.5 °F 82% 29.98 in 10.0 mi Calm Calm - N/A   Overcast
9:55 AM 50.9 °F - 45.7 °F 82% 29.98 in 10.0 mi NE 4.6 mph - N/A   Overcast
10:15 AM 50.4 °F - 46.0 °F 85% 29.99 in 10.0 mi East 3.5 mph - N/A   Overcast
10:35 AM 49.3 °F - 44.4 °F 83% 30.00 in 10.0 mi ENE 3.5 mph - N/A   Overcast
11:15 AM 49.5 °F - 43.7 °F 81% 30.00 in 10.0 mi Calm Calm - N/A   Overcast
11:35 AM 51.1 °F - 43.9 °F 76% 29.99 in 10.0 mi ENE 4.6 mph - N/A   Overcast
11:55 AM 53.2 °F - 45.0 °F 73% 29.99 in 10.0 mi NNE 4.6 mph - N/A   Overcast
12:15 PM 52.5 °F - 44.4 °F 74% 29.99 in 10.0 mi NE 4.6 mph - N/A   Overcast
12:35 PM 52.3 °F - 43.9 °F 73% 29.99 in 10.0 mi ENE 5.8 mph - N/A   Overcast
12:55 PM 52.3 °F - 44.2 °F 74% 29.99 in 10.0 mi NNE 3.5 mph - N/A   Overcast
1:15 PM 52.5 °F - 44.4 °F 74% 29.98 in 10.0 mi NE 4.6 mph - N/A   Overcast
1:35 PM 51.4 °F - 44.4 °F 77% 29.98 in 10.0 mi ENE 4.6 mph - N/A   Overcast
1:55 PM 50.9 °F - 44.6 °F 79% 29.97 in 10.0 mi East 4.6 mph - N/A   Overcast
2:15 PM 50.5 °F - 44.6 °F 80% 29.97 in 10.0 mi ENE 3.5 mph - N/A   Overcast
2:35 PM 50.0 °F - 43.7 °F 79% 29.97 in 10.0 mi ENE 4.6 mph - N/A   Overcast
2:55 PM 50.2 °F - 44.6 °F 81% 29.96 in 10.0 mi SE 5.8 mph - N/A   Overcast
3:15 PM 50.4 °F - 45.0 °F 82% 29.95 in 10.0 mi SE 3.5 mph - N/A   Overcast
3:35 PM 49.5 °F - 44.4 °F 83% 29.96 in 10.0 mi SSE 5.8 mph - N/A   Overcast
4:15 PM 47.1 °F - 43.2 °F 86% 29.96 in 7.0 mi SSE 4.6 mph - N/A   Overcast
4:35 PM 46.4 °F 44.3 °F 42.6 °F 87% 29.96 in 7.0 mi SE 4.6 mph - N/A   Overcast
4:55 PM 45.9 °F 43.6 °F 42.6 °F 88% 29.96 in 7.0 mi ESE 4.6 mph - N/A   Overcast
5:15 PM 45.7 °F 44.4 °F 42.3 °F 88% 29.96 in 5.0 mi ESE 3.5 mph - N/A   Overcast
5:35 PM 45.5 °F 43.2 °F 42.3 °F 88% 29.97 in 5.0 mi East 4.6 mph - N/A   Overcast
5:55 PM 45.0 °F 41.8 °F 41.9 °F 89% 29.97 in 5.0 mi East 5.8 mph - N/A   Overcast
6:15 PM 45.0 °F 41.8 °F 41.9 °F 89% 29.97 in 5.0 mi ESE 5.8 mph - N/A   Overcast
6:35 PM 45.0 °F - 41.9 °F 89% 29.97 in 5.0 mi Calm Calm - N/A   Overcast
6:55 PM 45.0 °F 42.6 °F 41.9 °F 89% 29.97 in 5.0 mi ESE 4.6 mph - N/A   Overcast
7:15 PM 44.8 °F 43.3 °F 41.9 °F 90% 29.98 in 5.0 mi ESE 3.5 mph - N/A   Overcast
7:35 PM 44.8 °F 42.4 °F 41.9 °F 90% 29.98 in 5.0 mi East 4.6 mph - N/A   Overcast
7:55 PM 43.0 °F 41.3 °F 39.9 °F 89% 29.99 in 7.0 mi SSE 3.5 mph - N/A   Overcast
8:15 PM 41.4 °F 39.4 °F 39.2 °F 92% 30.00 in 3.0 mi SSE 3.5 mph - N/A   Overcast
8:35 PM 40.3 °F 38.2 °F 38.3 °F 93% 30.00 in 1.0 mi SSE 3.5 mph - N/A   Overcast
9:15 PM 38.7 °F 34.3 °F 37.0 °F 94% 30.04 in 0.2 mi SSE 5.8 mph - N/A Rain Light Rain
9:35 PM 37.9 °F 35.5 °F 36.5 °F 95% 30.04 in 0.2 mi South 3.5 mph - N/A Rain Light Rain
9:55 PM 37.8 °F - 36.5 °F 95% 30.05 in 0.2 mi Calm Calm - N/A Rain Light Rain
10:15 PM 37.2 °F 33.6 °F 35.8 °F 95% 30.06 in 0.2 mi SSE 4.6 mph - N/A Rain Rain
10:35 PM 36.7 °F 34.1 °F 35.6 °F 96% 30.06 in 0.2 mi SSE 3.5 mph - N/A   Drizzle
10:55 PM 36.5 °F 33.9 °F 35.1 °F 95% 30.07 in 0.2 mi SSE 3.5 mph - N/A Rain Light Rain
11:15 PM 35.8 °F 33.0 °F 34.7 °F 96% 30.07 in 0.2 mi SSE 3.5 mph - N/A Rain Heavy Rain
11:35 PM 35.6 °F 32.8 °F 34.3 °F 95% 30.07 in 0.2 mi SE 3.5 mph - N/A   Drizzle
11:55 PM 34.9 °F 30.8 °F 33.6 °F 95% 30.07 in 0.2 mi SSE 4.6 mph - N/A   Drizzle